Regional Weather Roundup
Issued by NWS Little Rock, AR

Home | Current Version | Previous Version | Graphics & Text | Print | Product List | Glossary On
Versions: 1 2 3 4 5 6 7 8 9 10 11 12 13 14 15 16 17 18 19 20 21 22 23 24 25 26 27 28 29 30 31 32 33 34 35 36 37 38 39 40 41 42 43 44 45 46
000
ASUS44 KLZK 271205
RWRLZK

WEATHER ROUNDUP FOR ARKANSAS
NATIONAL WEATHER SERVICE LITTLE ROCK AR
600 AM CST SAT DEC 27 2014

NOTE: "FAIR" INDICATES FEW OR NO CLOUDS BELOW 12,000 FEET WITH NO
SIGNIFICANT WEATHER AND/OR OBSTRUCTIONS TO VISIBILITY.

ARZ001-003-010-029-271300-
NORTHWEST ARKANSAS

CITY           SKY/WX    TMP DP  RH WIND       PRES   REMARKS
FAYETTEVILLE   LGT RAIN  39  38  96 NW9       30.14R
6HR MIN TEMP:  39; 6HR MAX TEMP:  52; 6HR PCP:  0.11;

FORT SMITH     LGT RAIN  46  43  89 W12       30.12R
6HR MIN TEMP:  46; 6HR MAX TEMP:  52; 6HR PCP:  0.02;

HARRISON       CLOUDY    47  46  97 NW9       30.08R
6HR MIN TEMP:  47; 6HR MAX TEMP:  50; 6HR PCP:  0.01;

BENTONVILLE    CLOUDY    39  36  87 N10       30.13F
6HR MIN TEMP:  39; 6HR MAX TEMP:  54; 6HR PCP:  0.15;

ROGERS         LGT RAIN  39  38  96 NW12      30.13R
6HR MIN TEMP:  39; 6HR MAX TEMP:  52; 6HR PCP:  0.12;

SILOAM SPGS    CLOUDY    37  30  75 NW12      30.16R
6HR MIN TEMP:  37; 6HR MAX TEMP:  52; 6HR PCP:  0.26;

HIGHFILL       CLOUDY    38  50 100 NW10      30.13R
6HR MIN TEMP:  38; 6HR MAX TEMP:  52; 6HR PCP:  0.19;

SPRINGDALE     LGT RAIN  39  39 100 NW12G23   30.14
$$

ARZ004-005-016-271300-
NORTH CENTRAL ARKANSAS

CITY           SKY/WX    TMP DP  RH WIND       PRES   REMARKS
BATESVILLE     CLOUDY    52  50  93 SE7       30.09R
6HR MIN TEMP:  48; 6HR MAX TEMP:  52;

FLIPPIN        CLOUDY    48  45  87 CALM      30.06R
6HR MIN TEMP:  48; 6HR MAX TEMP:  50;

MTN HOME       CLOUDY    49  49 100 CALM      30.06S FOG
6HR MIN TEMP:  49; 6HR MAX TEMP:  49;

$$

ARZ040-041-271300-
WEST CENTRAL ARKANSAS

CITY           SKY/WX    TMP DP  RH WIND       PRES   REMARKS
MENA           CLOUDY    54  54 100 CALM      30.06R
MOUNT IDA      FOG       53  52  96 CALM      30.02S VSB 1
6HR MIN TEMP:  53; 6HR MAX TEMP:  54; 6HR PCP:  0.05;

$$

ARZ009-017-025-026-028-271300-
NORTHEAST ARKANSAS

CITY           SKY/WX    TMP DP  RH WIND       PRES   REMARKS
CORNING        CLOUDY    48  48 100 SE5       30.12R FOG
JONESBORO      LGT RAIN  50  49  96 S8        30.11S
6HR MIN TEMP:  48; 6HR MAX TEMP:  50; 6HR PCP:  0.16;

NEWPORT        CLOUDY    51  51 100 SE7       30.11S
6HR MIN TEMP:  49; 6HR MAX TEMP:  51; 6HR PCP:  0.21;

WALNUT RIDGE   CLOUDY    50  46  87 S9        30.10R
6HR MIN TEMP:  48; 6HR MAX TEMP:  50; 6HR PCP:  0.12;

BLYTHEVILLE    LGT RAIN  49  48  97 CALM      30.14S
6HR MIN TEMP:  49; 6HR MAX TEMP:  51; 6HR PCP: TRACE;

$$

ARZ022-023-033-042-044-271300-
CENTRAL ARKANSAS

CITY           SKY/WX    TMP DP  RH WIND       PRES   REMARKS
LITTLE ROCK    LGT RAIN  54  52  93 SE3       30.08S FOG
6HR MIN TEMP:  53; 6HR MAX TEMP:  55; 6HR PCP:  0.51;

N LITTLE ROCK    N/A     54  54 100 S6        30.08S
6HR MIN TEMP:  52; 6HR MAX TEMP:  54;

JACKSONVILLE   LGT RAIN  54  54 100 SE2       30.08R
6HR MIN TEMP:  53; 6HR MAX TEMP:  54; 6HR PCP:  0.35;

SEARCY           N/A     52  52 100 SE6       30.10S
6HR MIN TEMP:  52; 6HR MAX TEMP:  53; 6HR PCP:  0.31;

HOT SPRINGS    CLOUDY    54  54 100 E6        30.05S
6HR MIN TEMP:  53; 6HR MAX TEMP:  55; 6HR PCP:  0.31;

RUSSELLVILLE   CLOUDY    53  52  96 CALM      30.06R
6HR MIN TEMP:  51; 6HR MAX TEMP:  53;

CLINTON        CLOUDY    48  48 100 CALM      30.09S FOG
$$

ARZ036-271300-
EAST ARKANSAS

CITY           SKY/WX    TMP DP  RH WIND       PRES   REMARKS
WEST MEMPHIS   CLOUDY    53  50  89 S10       30.11S
6HR MIN TEMP:  50; 6HR MAX TEMP:  53; 6HR PCP:  0.04;

$$

ARZ050-053-066-070-073-271300-
SOUTHWEST ARKANSAS

CITY           SKY/WX    TMP DP  RH WIND       PRES   REMARKS
ARKADELPHIA    CLOUDY    56  56 100 CALM      30.06R FOG
6HR MIN TEMP:  54; 6HR MAX TEMP:  56; 6HR PCP:  0.52;

CAMDEN         CLOUDY    55  54  94 CALM      30.07R FOG
TEXARKANA      CLOUDY    57  57 100 S7        30.03S FOG
6HR MIN TEMP:  57; 6HR MAX TEMP:  58; 6HR PCP:  0.33;

EL DORADO      CLOUDY    57  56  96 SE5       30.06R
6HR MIN TEMP:  56; 6HR MAX TEMP:  57; 6HR PCP:  0.37;

DE QUEEN       CLOUDY    56  56 100 NE3       30.02R FOG
6HR MIN TEMP:  54; 6HR MAX TEMP:  56; 6HR PCP:  0.01;

$$

ARZ056-057-069-271300-
SOUTHEAST ARKANSAS

CITY           SKY/WX    TMP DP  RH WIND       PRES   REMARKS
PINE BLUFF     CLOUDY    53  51  93 E7        30.08F
6HR MIN TEMP:  53; 6HR MAX TEMP:  55; 6HR PCP:  0.01;

STUTTGART      CLOUDY    52  48  87 E6        30.10S
6HR MIN TEMP:  52; 6HR MAX TEMP:  54;

MONTICELLO     LGT RAIN  55  52  89 CALM      30.08R
6HR MIN TEMP:  54; 6HR MAX TEMP:  55; 6HR PCP:  0.01;


$$




USA.gov is the U.S. government's official web portal to all federal, state and local government web resources and services.